H1 CPF 2 NER 2021 8 1 9 213 01 glonass127 H2 1106403 9127 37869 2021 8 1 0 0 0 2021 8 4 23 45 0 900 1 1 0 0 0 1 H9 10 0 59427 0.00000 0 -20009363.587 -7810626.193 13829174.401 10 0 59427 900.00000 0 -18167331.613 -7643857.583 16259035.347 10 0 59427 1800.00000 0 -16039548.016 -7622961.794 18374662.097 10 0 59427 2700.00000 0 -13679609.660 -7782356.782 20135321.469 10 0 59427 3600.00000 0 -11148389.231 -8146210.238 21507129.084 10 0 59427 4500.00000 0 -8511704.625 -8727274.354 22463682.187 10 0 59427 5400.00000 0 -5837798.641 -9526208.853 22986552.624 10 0 59427 6300.00000 0 -3194730.921 -10531420.218 23065632.130 10 0 59427 7200.00000 0 -647787.520 -11719424.046 22699324.341 10 0 59427 8100.00000 0 1742987.589 -13055716.441 21894580.281 10 0 59427 9000.00000 0 3925039.557 -14496119.944 20666776.294 10 0 59427 9900.00000 0 5855237.338 -15988550.170 19039435.767 10 0 59427 10800.00000 0 7501417.470 -17475132.167 17043798.336 10 0 59427 11700.00000 0 8843473.746 -18894580.889 14718242.710 10 0 59427 12600.00000 0 9873947.507 -20184748.726 12107571.885 10 0 59427 13500.00000 0 10598093.459 -21285235.398 9262172.017 10 0 59427 14400.00000 0 11033417.168 -22139952.001 6237058.883 10 0 59427 15300.00000 0 11208702.225 -22699531.765 3090828.451 10 0 59427 16200.00000 0 11162566.450 -22923485.431 -115469.525 10 0 59427 17100.00000 0 10941606.766 -22782008.918 -3319513.902 10 0 59427 18000.00000 0 10598210.084 -22257364.732 -6458927.584 10 0 59427 18900.00000 0 10188122.498 -21344775.926 -9472501.793 10 0 59427 19800.00000 0 9767880.089 -20052791.788 -12301404.269 10 0 59427 20700.00000 0 9392211.274 -18403106.703 -14890346.066 10 0 59427 21600.00000 0 9111522.584 -16429837.194 -17188682.421 10 0 59427 22500.00000 0 8969576.625 -14178285.386 -19151424.121 10 0 59427 23400.00000 0 9001463.087 -11703239.594 -20740137.623 10 0 59427 24300.00000 0 9231951.225 -9066882.772 -21923714.573 10 0 59427 25200.00000 0 9674295.817 -6336396.594 -22678994.189 10 0 59427 26100.00000 0 10329548.961 -3581362.373 -22991225.232 10 0 59427 27000.00000 0 11186408.059 -871068.651 -22854357.919 10 0 59427 27900.00000 0 12221607.047 1728160.739 -22271159.831 10 0 59427 28800.00000 0 13400834.226 4155505.317 -21253153.768 10 0 59427 29700.00000 0 14680137.274 6357946.552 -19820379.430 10 0 59427 30600.00000 0 16007754.968 8292230.300 -18000984.501 10 0 59427 31500.00000 0 17326296.751 9926411.576 -15830654.469 10 0 59427 32400.00000 0 18575176.555 11240918.572 -13351893.834 10 0 59427 33300.00000 0 19693196.627 12229093.593 -10613174.377 10 0 59427 34200.00000 0 20621171.045 12897191.086 -7667968.954 10 0 59427 35100.00000 0 21304477.421 13263836.311 -4573691.325 10 0 59427 36000.00000 0 21695428.949 13358970.958 -1390564.263 10 0 59427 36900.00000 0 21755367.122 13222333.652 1819560.682 10 0 59427 37800.00000 0 21456387.935 12901542.483 4994407.862 10 0 59427 38700.00000 0 20782630.318 12449862.963 8072482.873 10 0 59427 39600.00000 0 19731074.403 11923757.210 10994255.147 10 0 59427 40500.00000 0 18311817.900 11380318.522 13703295.592 10 0 59427 41400.00000 0 16547820.674 10874699.346 16147348.506 10 0 59427 42300.00000 0 14474129.477 10457640.024 18279318.645 10 0 59427 43200.00000 0 12136615.881 10173200.770 20058156.511 10 0 59427 44100.00000 0 9590279.858 10056790.249 21449627.030 10 0 59427 45000.00000 0 6897188.787 10133571.561 22426949.028 10 0 59427 45900.00000 0 4124135.752 10417310.689 22971295.286 10 0 59427 46800.00000 0 1340111.909 10909714.446 23072145.218 10 0 59427 47700.00000 0 -1386305.065 11600285.070 22727484.498 10 0 59427 48600.00000 0 -3989541.335 12466697.850 21943848.241 10 0 59427 49500.00000 0 -6409491.801 13475687.160 20736206.649 10 0 59427 50400.00000 0 -8593759.914 14584405.668 19127694.286 10 0 59427 51300.00000 0 -10499581.648 15742202.294 17149186.624 10 0 59427 52200.00000 0 -12095355.087 16892747.130 14838729.825 10 0 59427 53100.00000 0 -13361712.460 17976416.893 12240832.430 10 0 59427 54000.00000 0 -14292089.767 18932843.075 9405630.074 10 0 59427 54900.00000 0 -14892769.301 19703517.379 6387937.029 10 0 59427 55800.00000 0 -15182391.898 20234345.544 3246200.995 10 0 59427 56700.00000 0 -15190957.882 20478041.854 41379.895 10 0 59427 57600.00000 0 -14958357.199 20396262.179 -3164238.384 10 0 59427 58500.00000 0 -14532489.451 19961383.430 -6308250.407 10 0 59427 59400.00000 0 -13967052.598 19157851.742 -9329361.689 10 0 59427 60300.00000 0 -13319093.647 17983039.133 -12168596.275 10 0 59427 61200.00000 0 -12646425.614 16447569.217 -14770466.149 10 0 59427 62100.00000 0 -12005021.481 14575095.229 -17084075.841 10 0 59427 63000.00000 0 -11446497.309 12401536.988 -19064138.676 10 0 59427 63900.00000 0 -11015793.222 9973806.984 -20671882.741 10 0 59427 64800.00000 0 -10749152.709 7348077.803 -21875827.134 10 0 59427 65700.00000 0 -10672487.903 4587663.089 -22652411.813 10 0 59427 66600.00000 0 -10800201.760 1760601.168 -22986467.604 10 0 59427 67500.00000 0 -11134518.226 -1062956.809 -22871516.521 10 0 59427 68400.00000 0 -11665349.309 -3813443.907 -22309896.295 10 0 59427 69300.00000 0 -12370704.611 -6424545.745 -21312706.883 10 0 59427 70200.00000 0 -13217625.320 -8835727.735 -19899580.604 10 0 59427 71100.00000 0 -14163601.920 -10994515.232 -18098281.379 10 0 59427 72000.00000 0 -15158414.064 -12858431.349 -15944142.160 10 0 59427 72900.00000 0 -16146313.002 -14396512.399 -13479353.094 10 0 59427 73800.00000 0 -17068452.448 -15590339.237 -10752115.919 10 0 59427 74700.00000 0 -17865463.520 -16434543.686 -7815682.928 10 0 59427 75600.00000 0 -18480063.648 -16936771.893 -4727300.946 10 0 59427 76500.00000 0 -18859588.513 -17117109.558 -1547082.424 10 0 59427 77400.00000 0 -18958339.945 -17006996.708 1663172.948 10 0 59427 78300.00000 0 -18739651.197 -16647681.047 4841182.279 10 0 59427 79200.00000 0 -18177583.539 -16088277.871 7925385.324 10 0 59427 80100.00000 0 -17258184.182 -15383520.424 10856128.711 10 0 59427 81000.00000 0 -15980254.260 -14591296.765 13576806.270 10 0 59427 81900.00000 0 -14355596.223 -13770077.194 16034934.617 10 0 59427 82800.00000 0 -12408731.623 -12976339.950 18183144.785 10 0 59427 83700.00000 0 -10176101.872 -12262102.084 19980072.856 10 0 59427 84600.00000 0 -7704785.414 -11672657.297 21391134.672 10 0 59427 85500.00000 0 -5050784.129 -11244613.527 22389171.909 10 0 59428 0.00000 0 -2276948.743 -11004310.297 22954959.187 10 0 59428 900.00000 0 549373.082 -10966680.625 23077564.164 10 0 59428 1800.00000 0 3358870.665 -11134602.909 22754554.764 10 0 59428 2700.00000 0 6082884.763 -11498771.050 21992050.090 10 0 59428 3600.00000 0 8655997.364 -12038086.823 20804613.800 10 0 59428 4500.00000 0 11018492.078 -12720560.446 19214990.957 10 0 59428 5400.00000 0 13118585.734 -13504682.956 17253691.905 10 0 59428 6300.00000 0 14914340.203 -14341215.302 14958429.003 10 0 59428 7200.00000 0 16375175.767 -15175321.578 12373414.751 10 0 59428 8100.00000 0 17482923.129 -15948959.075 9548532.342 10 0 59428 9000.00000 0 18232369.466 -16603426.529 6538392.282 10 0 59428 9900.00000 0 18631274.353 -17081964.398 3401291.413 10 0 59428 10800.00000 0 18699853.332 -17332297.799 198092.980 10 0 59428 11700.00000 0 18469749.060 -17309014.042 -3008951.396 10 0 59428 12600.00000 0 17982531.868 -16975672.800 -6157415.062 10 0 59428 13500.00000 0 17287791.798 -16306557.253 -9185920.930 10 0 59428 14400.00000 0 16440902.040 -15287989.120 -12035352.364 10 0 59428 15300.00000 0 15500548.540 -13919148.826 -14650025.149 10 0 59428 16200.00000 0 14526130.933 -12212362.697 -16978795.793 10 0 59428 17100.00000 0 13575146.202 -10192842.066 -18976082.567 10 0 59428 18000.00000 0 12700667.576 -7897882.849 -20602777.289 10 0 59428 18900.00000 0 11949027.271 -5375557.324 -21827028.242 10 0 59428 19800.00000 0 11357803.040 -2682951.954 -22624877.447 10 0 59428 20700.00000 0 10954195.405 115975.039 -22980738.648 10 0 59428 21600.00000 0 10753865.383 2952826.333 -22887706.040 10 0 59428 22500.00000 0 10760282.450 5757385.813 -22347687.409 10 0 59428 23400.00000 0 10964610.250 8460315.833 -21371359.299 10 0 59428 24300.00000 0 11346134.160 10995817.715 -19977945.652 10 0 59428 25200.00000 0 11873211.267 13304143.578 -18194825.201 10 0 59428 26100.00000 0 12504700.822 15333854.131 -16056976.561 10 0 59428 27000.00000 0 13191812.544 17043728.463 -13606273.350 10 0 59428 27900.00000 0 13880292.419 18404247.039 -10890644.758 10 0 59428 28800.00000 0 14512851.465 19398587.617 -7963119.720 10 0 59428 29700.00000 0 15031732.965 20023094.922 -4880775.078 10 0 59428 30600.00000 0 15381308.342 20287207.463 -1703609.757 10 0 59428 31500.00000 0 15510591.259 20212847.880 1506631.690 10 0 59428 32400.00000 0 15375563.718 19833305.820 4687662.366 10 0 59428 33300.00000 0 14941216.539 19191663.404 7777859.287 10 0 59428 34200.00000 0 14183219.302 18338832.008 10717449.149 10 0 59428 35100.00000 0 13089150.839 17331284.701 13449651.302 10 0 59428 36000.00000 0 11659240.048 16228580.498 15921756.957 10 0 59428 36900.00000 0 9906587.346 15090784.375 18086125.362 10 0 59428 37800.00000 0 7856858.402 13975890.389 19901079.783 10 0 59428 38700.00000 0 5547463.295 12937354.269 21331688.238 10 0 59428 39600.00000 0 3026254.969 12021836.729 22350416.170 10 0 59428 40500.00000 0 349799.954 11267249.588 22937640.601 10 0 59428 41400.00000 0 -2418708.813 10701184.183 23082017.588 10 0 59428 42300.00000 0 -5211812.911 10339785.932 22780697.065 10 0 59428 43200.00000 0 -7960328.331 10187120.850 22039381.464 10 0 59428 44100.00000 0 -10595962.248 10235060.043 20872226.772 10 0 59428 45000.00000 0 -13053901.195 10463687.411 19301586.993 10 0 59428 45900.00000 0 -15275266.040 10842214.610 17357605.358 10 0 59428 46800.00000 0 -17209333.878 11330366.712 15077658.096 10 0 59428 47700.00000 0 -18815435.655 11880182.564 12505659.065 10 0 59428 48600.00000 0 -20064450.929 12438156.388 9691236.239 10 0 59428 49500.00000 0 -20939836.955 12947632.484 6688793.507 10 0 59428 50400.00000 0 -21438147.861 13351353.589 3556473.998 10 0 59428 51300.00000 0 -21569020.536 13594056.014 355043.486 10 0 59428 52200.00000 0 -21354625.911 13625001.723 -2853285.388 10 0 59428 53100.00000 0 -20828606.857 13400339.181 -6006065.353 10 0 59428 54000.00000 0 -20034545.879 12885191.057 -9041839.191 10 0 59428 54900.00000 0 -19024026.152 12055377.771 -11901351.939 10 0 59428 55800.00000 0 -17854367.276 10898700.695 -14528725.338 10 0 59428 56700.00000 0 -16586131.685 9415727.409 -16872569.798 10 0 59428 57600.00000 0 -15280508.061 7620042.626 -18887010.198 10 0 59428 58500.00000 0 -13996683.652 5537951.239 -20532603.409 10 0 59428 59400.00000 0 -12789318.268 3207643.700 -21777127.870 10 0 59428 60300.00000 0 -11706228.447 677857.188 -22596228.252 10 0 59428 61200.00000 0 -10786381.206 -1993912.050 -22973901.427 10 0 59428 62100.00000 0 -10058283.352 -4743570.309 -22902813.585 10 0 59428 63000.00000 0 -9538835.012 -7502871.042 -22384442.004 10 0 59428 63900.00000 0 -9232695.796 -10202039.183 -21429038.869 10 0 59428 64800.00000 0 -9132189.653 -12772464.411 -20055418.448 10 0 59428 65700.00000 0 -9217751.041 -15149349.800 -18290572.672 10 0 59428 66600.00000 0 -9458891.647 -17274204.361 -16169123.928 10 0 59428 67500.00000 0 -9815644.438 -19097075.125 -13732627.218 10 0 59428 68400.00000 0 -10240421.468 -20578425.914 -11028736.954 10 0 59428 69300.00000 0 -10680204.365 -21690585.315 -8110256.421 10 0 59428 70200.00000 0 -11078972.543 -22418705.184 -5034090.181 10 0 59428 71100.00000 0 -11380264.619 -22761192.079 -1860121.366 10 0 59428 72000.00000 0 -11529763.430 -22729596.471 1349962.843 10 0 59428 72900.00000 0 -11477794.800 -22347967.624 4533873.736 10 0 59428 73800.00000 0 -11181634.564 -21651704.322 7629927.752 10 0 59428 74700.00000 0 -10607527.216 -20685952.443 10578233.804 10 0 59428 75600.00000 0 -9732332.236 -19503618.802 13321838.852 10 0 59428 76500.00000 0 -8544730.167 -18163085.891 15807810.722 10 0 59428 77400.00000 0 -7045939.244 -16725723.795 17988238.784 10 0 59428 78300.00000 0 -5249913.569 -15253302.986 19821135.210 10 0 59428 79200.00000 0 -3183015.195 -13805414.942 21271221.695 10 0 59428 80100.00000 0 -883173.739 -12437006.487 22310588.686 10 0 59428 81000.00000 0 1601432.267 -11196128.468 22919216.545 10 0 59428 81900.00000 0 4214119.150 -10121990.277 23085350.380 10 0 59428 82800.00000 0 6891796.790 -9243399.147 22805722.480 10 0 59428 83700.00000 0 9567338.044 -8577647.491 22085618.654 10 0 59428 84600.00000 0 12172123.825 -8129893.580 20938786.998 10 0 59428 85500.00000 0 14638661.340 -7893061.062 19387189.950 10 0 59429 0.00000 0 16903169.791 -7848261.912 17460602.917 10 0 59429 900.00000 0 18908028.423 -7965726.359 15196064.811 10 0 59429 1800.00000 0 20603987.033 -8206202.131 12637189.514 10 0 59429 2700.00000 0 21952046.670 -8522766.767 9833348.023 10 0 59429 3600.00000 0 22924933.222 -8862978.062 6838735.489 10 0 59429 4500.00000 0 23508100.161 -9171274.027 3711338.856 10 0 59429 5400.00000 0 23700217.348 -9391521.906 511823.642 10 0 59429 6300.00000 0 23513123.295 -9469608.792 -2697639.510 10 0 59429 7200.00000 0 22971240.733 -9355963.637 -5854585.884 10 0 59429 8100.00000 0 22110478.073 -9007902.311 -8897481.328 10 0 59429 9000.00000 0 20976661.512 -8391694.097 -11766935.665 10 0 59429 9900.00000 0 19623562.828 -7484259.193 -14406879.540 10 0 59429 10800.00000 0 18110605.828 -6274422.097 -16765679.989 10 0 59429 11700.00000 0 16500348.606 -4763664.527 -18797170.935 10 0 59429 12600.00000 0 14855848.867 -2966342.989 -20461576.444 10 0 59429 13500.00000 0 13238024.869 -909359.136 -21726306.917 10 0 59429 14400.00000 0 11703124.825 1368705.345 -22566611.104 10 0 59429 15300.00000 0 10300413.129 3818954.152 -22966070.033 10 0 59429 16200.00000 0 9070172.171 6383985.351 -22916922.476 10 0 59429 17100.00000 0 8042104.744 9000067.968 -22420215.330 10 0 59429 18000.00000 0 7234204.554 11599594.253 -21485776.089 10 0 59429 18900.00000 0 6652141.832 14113703.970 -20132008.542 10 0 59429 19800.00000 0 6289188.625 16474969.819 -18385516.560 10 0 59429 20700.00000 0 6126685.020 18620030.580 -16280564.607 10 0 59429 21600.00000 0 6135024.055 20492061.218 -13858386.962 10 0 59429 22500.00000 0 6275110.995 22042976.517 -11166360.770 10 0 59429 23400.00000 0 6500232.374 23235276.496 -8257060.838 10 0 59429 24300.00000 0 6758253.066 24043457.649 -5187216.340 10 0 59429 25200.00000 0 6994046.042 24454932.840 -2016591.300 10 0 59429 26100.00000 0 7152050.276 24470423.749 1193187.883 10 0 59429 27000.00000 0 7178847.422 24103812.325 4379834.103 10 0 59429 27900.00000 0 7025647.946 23381460.426 7481606.531 10 0 59429 28800.00000 0 6650581.991 22341028.947 10438499.396 10 0 59429 29700.00000 0 6020699.165 21029848.296 13193390.108 10 0 59429 30600.00000 0 5113594.223 19502910.144 15693125.629 10 0 59429 31500.00000 0 3918591.701 17820565.344 17889527.609 10 0 59429 32400.00000 0 2437441.014 16046024.213 19740298.936 10 0 59429 33300.00000 0 684493.780 14242762.645 21209816.421 10 0 59429 34200.00000 0 -1313643.687 12471940.601 22269796.565 10 0 59429 35100.00000 0 -3518968.669 10789938.355 22899823.735 10 0 59429 36000.00000 0 -5883416.594 9246110.564 23087732.329 10 0 59429 36900.00000 0 -8350618.282 7880849.200 22829836.776 10 0 59429 37800.00000 0 -10858009.476 6724033.706 22131005.579 10 0 59429 38700.00000 0 -13339208.130 5793931.208 21004577.763 10 0 59429 39600.00000 0 -15726563.868 5096591.604 19472122.530 10 0 59429 40500.00000 0 -17953776.753 4625762.508 17563045.219 10 0 59429 41400.00000 0 -19958479.197 4363328.080 15314045.076 10 0 59429 42300.00000 0 -21684675.389 4280254.546 12768433.005 10 0 59429 43200.00000 0 -23084937.722 4338004.284 9975319.914 10 0 59429 44100.00000 0 -24122268.710 4490360.802 6988688.962 10 0 59429 45000.00000 0 -24771549.723 4685589.380 3866367.638 10 0 59429 45900.00000 0 -25020514.406 4868843.456 668917.983 10 0 59429 46800.00000 0 -24870203.869 4984715.645 -2541534.471 10 0 59429 47700.00000 0 -24334882.075 4979825.312 -5702510.480 10 0 59429 48600.00000 0 -23441412.834 4805332.056 -8752401.708 10 0 59429 49500.00000 0 -22228122.365 4419266.774 -11631685.300 10 0 59429 50400.00000 0 -20743193.776 3788578.923 -14284103.093 10 0 59429 51300.00000 0 -19042660.392 2890810.328 -16657780.737 10 0 59429 52200.00000 0 -17188082.206 1715321.338 -18706262.840 10 0 59429 53100.00000 0 -15244003.964 264014.427 -20389441.884 10 0 59429 54000.00000 0 -13275302.924 -1448478.303 -21674360.976 10 0 59429 54900.00000 0 -11344539.341 -3395153.950 -22535873.195 10 0 59429 55800.00000 0 -9509422.710 -5537530.544 -22957143.460 10 0 59429 56700.00000 0 -7820501.676 -7827035.114 -22929982.391 10 0 59429 57600.00000 0 -6319175.709 -10206830.054 -22455005.316 10 0 59429 58500.00000 0 -5036112.558 -12614000.659 -21541613.460 10 0 59429 59400.00000 0 -3990137.693 -14982011.284 -20207798.221 10 0 59429 60300.00000 0 -3187641.344 -17243326.053 -18479773.236 10 0 59429 61200.00000 0 -2622526.281 -19332083.103 -16391442.681 10 0 59429 62100.00000 0 -2276696.070 -21186709.395 -13983717.631 10 0 59429 63000.00000 0 -2121060.251 -22752365.991 -11303695.436 10 0 59429 63900.00000 0 -2117010.939 -23983121.272 -8403719.931 10 0 59429 64800.00000 0 -2218305.279 -24843761.717 -5340342.484 10 0 59429 65700.00000 0 -2373271.365 -25311165.649 -2173205.721 10 0 59429 66600.00000 0 -2527241.980 -25375184.269 1036126.908 10 0 59429 67500.00000 0 -2625111.495 -25038995.464 4225371.933 10 0 59429 68400.00000 0 -2613906.870 -24318918.209 7332733.177 10 0 59429 69300.00000 0 -2445263.919 -23243698.002 10298092.006 10 0 59429 70200.00000 0 -2077704.791 -21853295.657 13064157.995 10 0 59429 71100.00000 0 -1478621.664 -20197231.987 15577558.836 10 0 59429 72000.00000 0 -625884.485 -18332558.765 17789849.937 10 0 59429 72900.00000 0 490993.368 -16321540.975 19658426.192 10 0 59429 73800.00000 0 1870179.304 -14229146.409 21147320.618 10 0 59429 74700.00000 0 3497363.075 -12120445.856 22227876.625 10 0 59429 75600.00000 0 5346122.310 -10058029.967 22879283.179 10 0 59429 76500.00000 0 7378797.508 -8099547.705 23088964.301 10 0 59429 77400.00000 0 9547841.476 -6295466.050 22852816.649 10 0 59429 78300.00000 0 11797589.356 -4687141.482 22175291.252 10 0 59429 79200.00000 0 14066378.398 -3305281.229 21069317.678 10 0 59429 80100.00000 0 16288932.390 -2168856.739 19556071.290 10 0 59429 81000.00000 0 18398914.682 -1284513.763 17664586.580 10 0 59429 81900.00000 0 20331546.410 -646503.542 15431221.981 10 0 59429 82800.00000 0 22026182.994 -237138.626 12898984.163 10 0 59429 83700.00000 0 23428742.954 -27755.391 10116722.366 10 0 59429 84600.00000 0 24493888.102 19855.655 7138205.878 10 0 59429 85500.00000 0 25186863.431 -48389.653 4021100.545 10 0 59430 0.00000 0 25484918.376 -181041.721 825862.531 10 0 59430 900.00000 0 25378247.423 -323531.773 -2385430.560 10 0 59430 1800.00000 0 24870409.152 -420727.142 -5550287.759 10 0 59430 2700.00000 0 23978201.702 -419517.463 -8607029.446 10 0 59430 3600.00000 0 22730999.176 -271321.965 -11496002.924 10 0 59430 4500.00000 0 21169573.692 65591.284 -14160763.955 10 0 59430 5400.00000 0 19344451.525 624074.811 -16549199.339 10 0 59430 6300.00000 0 17313871.716 1426449.027 -18614566.654 10 0 59430 7200.00000 0 15141433.165 2483300.287 -20316428.837 10 0 59430 8100.00000 0 12893529.603 3792783.552 -21621463.472 10 0 59430 9000.00000 0 10636681.360 5340461.636 -22504129.470 10 0 59430 9900.00000 0 8434877.459 7099689.704 -22947176.835 10 0 59430 10800.00000 0 6347040.940 9032530.095 -22941988.878 10 0 59430 11700.00000 0 4424724.904 11091159.509 -22488749.822 10 0 59430 12600.00000 0 2710136.676 13219709.176 -21596434.657 10 0 59430 13500.00000 0 1234572.922 15356460.022 -20282621.962 10 0 59430 14400.00000 0 17330.642 17436299.583 -18573134.243 10 0 59430 15300.00000 0 -934861.713 19393336.217 -16501514.016 10 0 59430 16200.00000 0 -1627871.431 21163559.718 -14108347.321 10 0 59430 17100.00000 0 -2079648.763 22687435.763 -11440449.477 10 0 59430 18000.00000 0 -2319198.992 23912324.756 -8549930.725 10 0 59430 18900.00000 0 -2385086.117 24794623.673 -5493161.701 10 0 59430 19800.00000 0 -2323534.595 25301541.760 -2329660.454 10 0 59430 20700.00000 0 -2186212.148 25412436.885 879075.833 10 0 59430 21600.00000 0 -2027789.657 25119658.397 4070770.707 10 0 59430 22500.00000 0 -1903382.809 24428863.420 7183575.989 10 0 59430 23400.00000 0 -1865984.293 23358795.701 10157263.401 10 0 59430 24300.00000 0 -1963994.918 21940538.601 12934377.710 10 0 59430 25200.00000 0 -2238957.054 20216275.389 15461330.122 10 0 59430 26100.00000 0 -2723584.621 18237609.980 17689412.276 10 0 59430 27000.00000 0 -3440171.032 16063518.772 19575713.241 10 0 59430 27900.00000 0 -4399440.490 13758018.596 21083924.049 10 0 59430 28800.00000 0 -5599889.659 11387646.782 22185016.471 10 0 59430 29700.00000 0 -7027646.665 9018856.207 22857785.117 10 0 59430 30600.00000 0 -8656853.489 6715431.031 23089244.244 10 0 59430 31500.00000 0 -10450556.688 4536027.767 22874872.872 10 0 59430 32400.00000 0 -12362071.064 2531940.883 22218704.176 10 0 59430 33300.00000 0 -14336761.889 745183.159 21133257.347 10 0 59430 34200.00000 0 -16314174.249 -793041.453 19639312.440 10 0 59430 35100.00000 0 -18230423.884 -2063410.372 17765531.094 10 0 59430 36000.00000 0 -20020752.809 -3059056.322 15547928.423 10 0 59430 36900.00000 0 -21622145.549 -3785618.512 13029203.944 10 0 59430 37800.00000 0 -22975898.562 -4260768.190 10257941.961 10 0 59430 38700.00000 0 -24030036.347 -4513227.231 7287694.414 10 0 59430 39600.00000 0 -24741472.967 -4581319.442 4175961.905 10 0 59430 40500.00000 0 -25077827.378 -4511114.202 983090.980 10 0 59430 41400.00000 0 -25018814.471 -4354239.601 -2228891.956 10 0 59430 42300.00000 0 -24557150.937 -4165456.906 -5397487.719 10 0 59430 43200.00000 0 -23698935.030 -4000099.122 -8460948.611 10 0 59430 44100.00000 0 -22463481.397 -3911482.977 -11359495.078 10 0 59430 45000.00000 0 -20882615.280 -3948405.653 -14036499.481 10 0 59430 45900.00000 0 -18999453.667 -4152834.618 -16439612.092 10 0 59430 46800.00000 0 -16866723.391 -4557891.152 -18521805.391 10 0 59430 47700.00000 0 -14544686.132 -5186215.847 -20242314.191 10 0 59430 48600.00000 0 -12098757.659 -6048788.085 -21567451.409 10 0 59430 49500.00000 0 -9596921.880 -7144251.964 -22471282.023 10 0 59430 50400.00000 0 -7107049.321 -8458779.199 -22936140.744 10 0 59430 51300.00000 0 -4694233.734 -9966476.195 -22952982.604 10 0 59430 52200.00000 0 -2418259.610 -11630318.889 -22521559.207 10 0 59430 53100.00000 0 -331307.638 -13403575.983 -21650417.338 10 0 59430 54000.00000 0 1524005.483 -15231660.095 -20356720.431 10 0 59430 54900.00000 0 3116171.145 -17054327.940 -18665897.253 10 0 59430 55800.00000 0 4425853.188 -18808135.597 -16611125.868 10 0 59430 56700.00000 0 5446429.841 -20429044.301 -14232664.380 10 0 59430 57600.00000 0 6183993.125 -21855065.899 -11577043.128 10 0 59430 58500.00000 0 6656808.865 -23028835.837 -8696135.837 10 0 59430 59400.00000 0 6894263.534 -23900005.093 -5646129.564 10 0 59430 60300.00000 0 6935345.825 -24427350.694 -2486415.070 10 0 59430 61200.00000 0 6826730.242 -24580516.904 721579.289 10 0 59430 62100.00000 0 6620546.410 -24341315.342 3915586.439 10 0 59430 63000.00000 0 6371930.398 -23704531.251 7033708.354 10 0 59430 63900.00000 0 6136462.712 -22678204.198 10015609.044 10 0 59430 64800.00000 0 5967601.543 -21283373.567 12803670.158 10 0 59430 65700.00000 0 5914219.168 -19553301.343 15344087.859 10 0 59430 66600.00000 0 6018344.244 -17532206.140 17587891.196 10 0 59430 67500.00000 0 6313203.563 -15273562.021 19491864.316 10 0 59430 68400.00000 0 6821643.907 -12838032.928 21019356.881 10 0 59430 69300.00000 0 7554998.704 -10291127.827 22140969.331 10 0 59430 70200.00000 0 8512445.828 -7700672.303 22835101.945 10 0 59430 71100.00000 0 9680882.966 -5134199.201 23088358.958 10 0 59430 72000.00000 0 11035325.971 -2656363.857 22895801.243 10 0 59430 72900.00000 0 12539814.698 -326488.178 22261043.397 10 0 59430 73800.00000 0 14148790.375 1803667.470 21196193.313 10 0 59430 74700.00000 0 15808889.492 3691814.398 19721634.654 10 0 59430 75600.00000 0 17461082.182 5306650.358 17865654.985 10 0 59430 76500.00000 0 19043068.757 6628916.991 15663924.732 10 0 59430 77400.00000 0 20491836.859 7651956.194 13158834.747 10 0 59430 78300.00000 0 21746274.437 8381741.801 10398702.725 10 0 59430 79200.00000 0 22749730.446 8836384.267 7436861.404 10 0 59430 80100.00000 0 23452416.284 9045127.759 4330644.102 10 0 59430 81000.00000 0 23813546.515 9046880.329 1140285.613 10 0 59430 81900.00000 0 23803127.442 8888337.858 -2072241.336 10 0 59430 82800.00000 0 23403315.975 8621779.987 -5244431.722 10 0 59430 83700.00000 0 22609288.725 8302630.916 -8314472.212 10 0 59430 84600.00000 0 21429581.715 7986888.713 -11222458.782 10 0 59430 85500.00000 0 19885883.325 7728533.103 -13911582.646 99